Altoona, PA

7:46 AM EST on November 13, 2019 (GMT -0500)
Altoona-Blair County

Weather History for KAOO - September, 2019

Change the Weather History Date:

Friday, September 13, 2019

  Actual Average Record
Temperature  
Mean Temperature 63 °F 63 °F  
Max Temperature 66 °F 73 °F 92 °F (1952)
Min Temperature 60 °F 52 °F 39 °F (1955)
Degree Days  
Heating Degree Days 2 4  
Month to date heating degree days 8 34  
Since 1 July heating degree days 17 66  
Cooling Degree Days 0 2  
Month to date cooling degree days 47 31  
Year to date cooling degree days 692 510  
Growing Degree Days 13 (Base 50)    
Moisture  
Dew Point 59 °F    
Average Humidity 87    
Maximum Humidity 93    
Minimum Humidity 81    
Precipitation  
Precipitation 0.02 in 0.11 in 1.47 in (1971)
Month to date precipitation 0.81 1.50  
Year to date precipitation 30.50 25.43  
Sea Level Pressure  
Sea Level Pressure 30.32 in    
Wind  
Wind Speed 7 mph (ESE)    
Max Wind Speed 14 mph    
Max Gust Speed 22 mph    
Visibility 6 miles    
Events      
T = Trace of Precipitation, MM = Missing Value Source: NWS Daily Summary

Daily Weather History Graph

Daily Weather History Graph

Search for Another Location

Airport or City:

Astronomy

Sep. 13, 2019 Rise Set
Actual Time 6:51 AM EDT 7:25 PM EDT
Civil Twilight 6:24 AM EDT 7:53 PM EDT
Nautical Twilight 5:52 AM EDT 8:25 PM EDT
Astronomical Twilight 5:19 AM EDT 8:58 PM EDT
Moon 7:38 PM EDT 6:06 AM EDT
Length of Visible Light 13h 28m
Length of Day
12h 33m
Full, 100% of the Moon is Illuminated
Sep 13
Full
Sep 14
Full
Sep 21
Last Quarter
Sep 28
New
Oct 5
First Quarter

Hourly Weather History & Observations

Time (EDT) Temp. Dew Point Humidity Pressure Visibility Wind Dir Wind Speed Gust Speed Precip Events Conditions
12:53 AM 66.0 °F 61.0 °F 84% 30.24 in 10.0 mi NNE 5.8 mph - N/A   Overcast
1:53 AM 64.9 °F 61.0 °F 87% 30.25 in 10.0 mi Variable 4.6 mph - N/A   Overcast
2:21 AM 64.9 °F 61.0 °F 87% 30.27 in 10.0 mi NNE 6.9 mph - N/A   Overcast
2:53 AM 64.9 °F 61.0 °F 87% 30.25 in 10.0 mi NNE 4.6 mph - N/A   Overcast
3:46 AM 63.0 °F 61.0 °F 93% 30.28 in 3.0 mi NNE 5.8 mph - N/A   Overcast
3:53 AM 63.0 °F 61.0 °F 93% 30.25 in 3.0 mi NNE 4.6 mph - N/A   Overcast
4:53 AM 64.0 °F 62.1 °F 93% 30.26 in 4.0 mi Calm Calm - N/A   Overcast
5:53 AM 64.0 °F 61.0 °F 90% 30.26 in 7.0 mi East 3.5 mph - N/A   Overcast
6:53 AM 64.0 °F 61.0 °F 90% 30.29 in 6.0 mi Variable 6.9 mph - N/A   Overcast
7:53 AM 63.0 °F 61.0 °F 93% 30.32 in 4.0 mi East 4.6 mph - 0.01 in   Overcast
8:37 AM 63.0 °F 60.1 °F 90% 30.34 in 2.0 mi East 5.8 mph - 0.01 in   Overcast
8:53 AM 62.1 °F 60.1 °F 93% 30.34 in 2.5 mi East 4.6 mph - 0.01 in   Overcast
9:03 AM 62.1 °F 59.0 °F 90% 30.35 in 3.0 mi ESE 5.8 mph - N/A   Overcast
9:53 AM 62.1 °F 59.0 °F 90% 30.35 in 4.0 mi ESE 6.9 mph - N/A   Overcast
10:53 AM 62.1 °F 57.9 °F 86% 30.36 in 7.0 mi ESE 9.2 mph - N/A   Overcast
11:53 AM 62.1 °F 57.9 °F 86% 30.36 in 9.0 mi ESE 8.1 mph - N/A   Overcast
12:53 PM 62.1 °F 57.9 °F 86% 30.37 in 9.0 mi ESE 6.9 mph - N/A   Overcast
1:53 PM 62.1 °F 57.0 °F 84% 30.36 in 9.0 mi SE 9.2 mph - N/A   Overcast
2:53 PM 61.0 °F 57.0 °F 87% 30.36 in 5.0 mi SE 8.1 mph 18.4 mph N/A   Overcast
3:53 PM 61.0 °F 57.0 °F 87% 30.35 in 4.0 mi ESE 6.9 mph - N/A   Overcast
4:53 PM 61.0 °F 57.0 °F 87% 30.35 in 3.0 mi ESE 6.9 mph - N/A   Overcast
5:02 PM 60.1 °F 57.0 °F 90% 30.35 in 2.0 mi ESE 6.9 mph - N/A   Overcast
5:22 PM 60.1 °F 57.0 °F 90% 30.35 in 3.0 mi SE 5.8 mph - N/A   Overcast
5:53 PM 60.1 °F 57.9 °F 93% 30.34 in 3.0 mi Variable 6.9 mph - N/A   Overcast
6:31 PM 61.0 °F 57.0 °F 87% 30.35 in 6.0 mi SSE 12.7 mph 19.6 mph N/A   Overcast
6:43 PM 61.0 °F 57.0 °F 87% 30.34 in 5.0 mi SSE 9.2 mph - N/A   Overcast
6:53 PM 61.0 °F 57.0 °F 87% 30.33 in 5.0 mi SE 8.1 mph - N/A   Overcast
7:53 PM 61.0 °F 57.9 °F 90% 30.33 in 8.0 mi South 6.9 mph - N/A   Overcast
8:53 PM 62.1 °F 57.0 °F 84% 30.34 in 10.0 mi SSE 8.1 mph 18.4 mph N/A   Overcast
9:53 PM 62.1 °F 57.0 °F 84% 30.33 in 10.0 mi Variable 6.9 mph 21.9 mph N/A   Overcast
10:53 PM 62.1 °F 57.0 °F 84% 30.33 in 10.0 mi SW 5.8 mph - N/A   Overcast
11:53 PM 62.1 °F 57.0 °F 84% 30.31 in 10.0 mi SSW 9.2 mph - N/A   Overcast